Weather History for Mineral Wells, TX

Change the Weather History Date:

Wednesday, December 19, 2012

  Actual Average Record
Temperature  
Mean Temperature 62 °F -  
Max Temperature 79 °F 55 °F 82 °F (1999)
Min Temperature 44 °F 30 °F 17 °F (1996)
Degree Days  
Heating Degree Days 2    
Growing Degree Days 12 (Base 50)    
Moisture  
Dew Point 45 °F    
Average Humidity 57    
Maximum Humidity 94    
Minimum Humidity 15    
Precipitation  
Precipitation 0.00 in - - ()
Sea Level Pressure  
Sea Level Pressure 29.67 in    
Wind  
Wind Speed 14 mph (South)    
Max Wind Speed 32 mph    
Max Gust Speed 47 mph    
Visibility 8 miles    
Events Rain    
Averages and records for this station are not official NWS values.
T = Trace of Precipitation, MM = Missing Value Source: NWS Daily Summary

Daily Weather History Graph

Daily Weather History Graph

Search for Another Location

Airport:

Trip Planner

Search our weather history database for the weather conditions in past years. The results will help you decide how hot, cold, wet, or windy it might be!

Date:

Astronomy

Dec. 19, 2012 Rise Set
Actual Time 7:29 AM CST 5:29 PM CST
Civil Twilight 7:02 AM CST 5:56 PM CST
Nautical Twilight 6:31 AM CST 6:27 PM CST
Astronomical Twilight 6:01 AM CST 6:57 PM CST
Moon 12:00 PM CST (12/19) No Moon Set
Length of Visible Light 10h 54m
Length of Day
9h 59m
Waxing Crescent, 45% of the Moon is Illuminated
Dec 19
Waxing Crescent
Dec 19
First Quarter
Dec 28
Full
Jan 4
Last Quarter
Jan 11
New

Hourly Weather History & Observations

Time (CST) Temp. Windchill Dew Point Humidity Pressure Visibility Wind Dir Wind Speed Gust Speed Precip Events Conditions
12:53 AM 53.1 °F - 34.0 °F 48% 29.71 in 10.0 mi SE 11.5 mph - N/A   Clear
1:53 AM 59.0 °F - 43.0 °F 55% 29.70 in 10.0 mi SSE 11.5 mph - N/A   Clear
2:53 AM 59.0 °F - 46.9 °F 64% 29.70 in 10.0 mi SSE 13.8 mph - N/A   Clear
3:53 AM 53.1 °F - 46.0 °F 77% 29.69 in 10.0 mi SE 9.2 mph - N/A   Clear
4:53 AM 54.0 °F - 48.9 °F 83% 29.68 in 10.0 mi SE 12.7 mph - N/A   Mostly Cloudy
5:53 AM 57.0 °F - 54.0 °F 89% 29.66 in 10.0 mi SE 10.4 mph - N/A   Mostly Cloudy
6:03 AM 57.2 °F - 53.6 °F 88% 29.68 in 10.0 mi SE 10.4 mph - N/A   Overcast
6:40 AM 57.2 °F - 53.6 °F 88% 29.67 in 10.0 mi SE 10.4 mph - N/A   Scattered Clouds
6:53 AM 57.0 °F - 55.0 °F 93% 29.65 in 10.0 mi SE 8.1 mph - N/A   Partly Cloudy
7:23 AM 57.2 °F - 55.4 °F 94% 29.68 in 10.0 mi SE 6.9 mph - N/A   Mostly Cloudy
7:50 AM 57.2 °F - 55.4 °F 94% 29.67 in 8.0 mi SE 8.1 mph - N/A   Scattered Clouds
7:53 AM 57.9 °F - 55.9 °F 93% 29.65 in 8.0 mi SE 8.1 mph - N/A   Partly Cloudy
8:25 AM 60.8 °F - 57.2 °F 88% 29.68 in 8.0 mi SE 5.8 mph - N/A   Mostly Cloudy
8:53 AM 62.1 °F - 59.0 °F 90% 29.67 in 10.0 mi SE 4.6 mph - N/A   Overcast
9:53 AM 66.9 °F - 60.1 °F 79% 29.66 in 10.0 mi SSE 11.5 mph - N/A   Mostly Cloudy
10:30 AM 69.8 °F - 59.0 °F 68% 29.67 in 10.0 mi South 13.8 mph - N/A   Scattered Clouds
10:53 AM 69.1 °F - 59.0 °F 70% 29.64 in 10.0 mi SSE 11.5 mph 20.7 mph N/A   Clear
11:53 AM 72.0 °F - 57.9 °F 61% 29.61 in 10.0 mi South 12.7 mph 23.0 mph N/A   Clear
12:53 PM 73.9 °F - 57.9 °F 57% 29.57 in 10.0 mi South 16.1 mph 23.0 mph N/A   Clear
1:53 PM 73.0 °F - 57.0 °F 57% 29.53 in 10.0 mi South 11.5 mph - N/A   Clear
2:53 PM 78.1 °F - 55.0 °F 45% 29.52 in 10.0 mi SSW 13.8 mph - N/A   Clear
3:53 PM 79.0 °F - 50.0 °F 36% 29.52 in 10.0 mi SSW 12.7 mph 20.7 mph N/A   Clear
4:53 PM 79.0 °F - 51.1 °F 38% 29.51 in 10.0 mi South 11.5 mph - N/A   Clear
5:53 PM 75.0 °F - 52.0 °F 44% 29.53 in 10.0 mi SSW 10.4 mph - N/A   Clear
6:53 PM 72.0 °F - 50.0 °F 46% 29.57 in 10.0 mi SW 8.1 mph - N/A   Clear
7:53 PM 73.9 °F - 35.1 °F 24% 29.61 in 5.0 mi West 24.2 mph 33.4 mph N/A   Haze
8:17 PM 73.4 °F - 30.2 °F 20% 29.67 in 2.0 mi WNW 29.9 mph 38.0 mph N/A   Haze
8:21 PM 71.6 °F - 32.0 °F 23% 29.68 in 1.8 mi WNW 31.1 mph 43.7 mph N/A   Haze
8:30 PM 68.0 °F - 32.0 °F 26% 29.70 in 2.0 mi WNW 28.8 mph 47.2 mph N/A   Haze
8:53 PM 64.9 °F - 27.0 °F 24% 29.70 in 2.5 mi WNW 24.2 mph 38.0 mph N/A   Haze
9:00 PM 64.4 °F - 24.8 °F 22% 29.73 in 3.0 mi WNW 31.1 mph 41.4 mph N/A   Haze
9:53 PM 62.1 °F - 14.0 °F 15% 29.75 in 2.0 mi WNW 32.2 mph 47.2 mph 0.00 in   Haze
10:17 PM 59.0 °F - 17.6 °F 20% 29.82 in 3.0 mi WNW 26.5 mph 43.7 mph N/A   Haze
10:53 PM 54.0 °F - 21.9 °F 29% 29.85 in 6.0 mi NW 31.1 mph 41.4 mph 0.00 in   Haze
11:42 PM 46.4 °F 37.0 °F 24.8 °F 43% 29.93 in 10.0 mi WNW 31.1 mph 41.4 mph 0.00 in Rain Light Rain
11:53 PM 44.1 °F 33.7 °F 23.0 °F 43% 29.93 in 10.0 mi WNW 32.2 mph 44.9 mph 0.00 in   Overcast